CAPE
6 0 0 0 1 9 2 18 0 2 0 1 0 0 0 0 17 24 29 7 2 0 0 0 0 0 0 0 0 0 0 0 0 0 0 0 0 0 0 0 0 0 0 0
3 0 0 0 4 11 53 14 1 1 0 0 0 0 0 0 0 23 43 16 2 0 0 0 0 0 0 0 0 0 0 0 0 0 0 0 0 0 0 0 0 0 0 0
1 0 0 6 2 0 32 1 0 0 0 1 0 0 0 0 0 3 52 22 14 1 0 0 0 0 0 0 0 0 0 0 0 0 0 0 0 0 0 0 0 0 0 0
0 0 0 0 3 0 2 0 1 1 1 0 0 0 2 0 0 6 25 69 41 23 1 0 0 0 0 0 0 0 0 0 0 0 0 0 0 0 0 0 0 0 0 0
0 0 0 0 0 3 0 0 0 1 1 0 1 0 0 2 5 5 34 43 94 62 35 0 0 0 0 0 0 0 0 0 0 0 0 0 0 0 0 0 0 0 0 0
0 11 1 2 23 31 1 0 2 1 0 0 0 0 0 0 0 7 49 55 79 35 42 12 0 0 0 0 0 0 0 0 0 0 0 0 0 0 0 0 0 0 0 0
0 2 1 7 11 14 30 2 0 0 0 0 0 0 0 0 0 0 2 32 31 29 1 0 0 0 0 0 0 0 0 0 0 0 0 0 0 0 0 0 0 0 0 0
0 0 0 3 0 3 1 0 0 0 0 0 0 0 0 0 0 0 1 57 39 2 0 0 0 0 0 0 0 0 0 0 0 0 0 0 0 0 0 0 0 0 0 0
0 0 2 0 4 6 2 3 0 0 0 0 0 0 0 0 0 0 0 18 47 0 0 0 0 0 0 0 0 0 0 0 0 0 0 0 0 0 0 0 0 0 0 0
0 0 1 2 1 11 1 0 0 0 0 0 0 0 0 0 0 0 0 31 0 0 1 3 4 4 6 2 0 0 0 0 0 0 0 0 0 0 0 0 0 0 0 0
0 0 0 0 0 0 6 0 0 0 0 0 0 0 1 0 0 0 0 0 0 1 3 4 4 2 3 4 6 1 1 0 0 0 0 0 0 0 0 0 0 0 0 0
0 0 0 0 1 1 1 0 0 0 0 0 0 0 0 0 1 0 0 1 4 3 6 4 2 2 2 1 1 1 2 1 0 0 0 0 0 0 0 0 0 0 0 0
0 0 0 0 0 1 1 0 2 0 1 0 0 0 1 0 0 1 0 1 2 3 3 2 2 2 2 0 0 0 0 0 0 0 0 0 0 1 0 0 0 0 0 0
0 0 0 0 0 0 0 1 0 0 0 0 0 0 0 0 0 0 2 2 1 1 3 3 3 3 4 1 0 0 0 0 0 0 0 0 0 0 0 0 0 0 0 0
0 0 0 2 0 0 0 1 1 1 0 0 0 0 1 0 0 0 0 1 1 0 0 1 1 0 0 0 0 0 0 0 1 0 0 0 0 0 0 0 0 0 0 0
0 0 0 0 0 0 0 0 0 0 1 0 0 0 0 0 0 0 0 0 0 0 0 0 0 0 0 0 0 0 0 0 0 0 0 0 0 0 0 0 0 0 0 0
0 0 0 0 0 0 0 0 0 0 2 0 0 0 0 0 0 0 0 0 0 0 0 0 0 0 0 0 0 0 0 0 0 0 0 0 0 0 0 0 0 0 0 0
0 0 0 0 0 0 0 0 0 0 0 0 0 0 0 0 0 0 0 0 0 0 0 0 0 0 0 0 0 0 0 0 0 0 0 0 0 0 0 0 0 0 0 0
1 0 0 0 0 0 0 0 0 0 0 0 0 0 0 0 0 0 0 0 0 0 0 0 0 0 0 0 0 0 0 0 0 0 0 0 0 0 0 0 0 0 0 0
0 1 1 0 0 0 0 0 0 0 0 0 0 0 0 0 0 0 0 0 0 0 0 0 0 0 0 0 0 0 0 0 0 0 0 0 0 0 0 0 0 0 0 0
0 0 0 0 1 0 0 0 0 0 0 0 0 0 0 0 0 0 0 0 0 0 0 0 0 0 0 0 0 0 0 0 0 0 0 0 0 0 0 0 0 0 0 0
0 0 0 0 0 0 0 0 0 0 0 0 0 0 0 0 0 0 0 0 0 0 0 0 0 0 0 0 0 0 0 0 0 0 0 0 0 0 0 0 0 0 0 0
0 0 0 0 0 0 0 0 0 0 0 0 0 0 0 0 0 0 0 0 0 0 0 0 0 0 0 0 0 0 0 0 0 0 0 0 0 0 0 0 0 0 0 0
0 0 0 0 0 0 0 0 0 0 0 0 0 0 0 0 0 0 0 0 0 0 0 0 0 0 0 0 0 0 0 0 0 0 0 0 0 0 0 0 0 0 0 0
0 0 0 0 0 0 0 0 0 0 0 0 0 0 0 0 0 0 0 0 0 0 0 0 0 0 0 0 0 0 0 0 0 0 0 0 0 0 0 0 0 0 0 0
0 0 0 0 0 0 0 0 0 0 0 0 0 0 0 0 0 0 0 0 0 0 0 0 0 0 0 0 0 0 0 0 0 0 0 0 0 0 0 0 0 0 0 0
CIN
-3 0 0 0 0 0 0 -1 -1 -3 0 -3 0 0 0 0 -30 -34 -45 -82 -142 0 0 0 0 0 0 0 0 0 0 -9 0 0 0 0 0 0 0 0 0 0 0 0
-2 0 0 0 -4 -3 -2 -1 -2 -4 0 0 0 0 0 0 0 -27 -40 -82 -72 0 0 0 0 0 0 0 0 0 0 0 0 0 0 0 0 0 0 0 0 0 0 0
0 0 0 -3 -1 0 -1 0 0 0 0 0 0 0 0 0 0 -10 -31 -55 -101 -90 0 0 0 0 0 0 0 0 0 0 0 0 0 0 0 0 0 0 0 0 0 0
0 0 0 0 -1 0 -8 0 0 0 0 0 0 0 0 0 0 -3 -18 -34 -40 -72 -108 0 0 0 0 0 0 0 0 0 0 0 0 0 0 0 0 0 0 0 0 0
0 0 0 0 0 0 0 0 0 0 0 0 0 0 0 0 0 0 0 -23 -25 -58 -75 -5 0 0 0 0 0 0 0 0 0 0 0 0 0 0 0 0 0 0 0 0
0 0 0 0 -5 -4 -21 0 0 0 0 0 0 0 0 0 0 0 0 -34 -28 -44 -48 -39 0 0 0 0 0 0 0 0 0 0 0 0 0 0 0 0 0 0 0 0
0 -4 0 0 -27 -11 -22 -7 -4 -7 0 0 0 0 0 0 0 0 -26 -33 -49 -52 -41 0 0 0 0 0 0 0 0 0 0 0 0 0 0 0 0 0 0 0 0 0
-1 0 0 0 0 -2 -3 -43 0 0 0 0 0 0 0 0 0 0 -2 -55 -42 -11 0 0 0 0 0 0 0 0 0 0 0 0 0 0 0 0 0 0 0 0 0 0
0 0 0 0 0 -6 -18 -12 0 0 0 0 0 0 0 0 0 0 -5 -7 -12 0 0 0 0 0 0 0 0 0 0 0 0 0 0 0 0 0 0 0 0 0 0 0
0 0 0 0 0 -1 -11 0 0 0 0 0 0 0 0 0 0 0 -1 0 -3 0 0 0 0 0 0 0 0 0 0 0 0 0 0 0 0 0 0 0 0 0 0 0
0 0 0 0 0 0 0 0 0 0 0 0 0 0 0 0 0 0 0 0 0 0 0 0 0 0 0 0 0 0 0 0 0 0 0 0 0 0 0 0 0 0 0 0
0 0 0 0 0 0 0 0 0 0 0 0 0 0 0 0 0 0 0 0 0 0 0 0 0 0 0 0 0 0 0 0 0 0 0 0 0 0 0 0 0 0 0 0
0 0 0 0 0 0 0 0 0 0 0 0 0 0 0 0 0 0 0 0 0 0 0 0 0 0 0 0 0 0 0 0 0 0 0 0 0 0 0 0 0 0 0 0
0 0 0 0 0 0 0 0 0 0 0 0 0 0 0 0 0 0 0 0 0 0 0 0 0 0 0 0 0 0 0 0 0 0 0 0 0 0 0 0 0 0 0 0
0 0 0 -3 -1 0 0 0 0 0 0 0 0 0 -1 0 0 0 0 0 0 0 0 0 0 0 0 0 0 0 0 0 0 0 0 0 0 0 0 0 0 0 0 0
0 0 0 0 0 0 0 0 0 0 0 -2 0 0 0 0 0 0 0 0 0 0 0 0 0 0 0 0 0 0 0 0 0 0 0 0 0 0 0 0 0 0 0 0
0 0 0 0 0 0 0 0 0 0 0 0 0 0 0 0 0 0 0 0 0 0 0 0 0 0 0 0 0 0 0 0 0 0 0 0 0 0 0 0 0 0 0 0
0 0 0 0 0 0 0 0 0 0 0 0 0 0 0 0 0 0 0 0 0 0 0 0 0 0 0 0 0 0 0 0 0 0 0 0 0 0 0 0 0 0 0 0
0 0 0 0 0 0 0 0 0 -1 0 0 0 0 0 0 0 0 0 0 0 0 0 0 0 0 0 0 0 0 0 0 0 0 0 0 0 0 0 0 0 0 0 0
0 0 0 0 0 0 0 0 0 0 0 0 0 0 0 0 0 0 0 0 0 0 0 0 0 0 0 0 0 0 0 0 0 0 0 0 0 0 0 0 0 0 0 0
0 0 0 0 0 0 0 0 0 0 0 0 0 0 0 0 0 0 0 0 0 0 0 0 0 0 0 0 0 0 0 0 0 0 0 0 0 0 0 0 0 0 0 0
0 0 0 0 0 0 0 0 0 0 0 0 0 0 0 0 0 0 0 0 0 0 0 0 0 0 0 0 0 0 0 0 0 0 0 0 0 0 0 0 0 0 0 0
0 0 0 0 0 0 0 0 0 0 0 0 0 0 0 0 0 0 0 0 0 0 0 0 0 0 0 0 0 0 0 0 0 0 0 0 0 0 0 0 0 0 0 0
0 0 0 0 0 0 0 0 0 0 0 0 0 0 0 0 0 0 0 0 0 0 0 0 0 0 0 0 0 0 0 0 0 0 0 0 0 0 0 0 0 0 0 0
0 0 0 0 0 0 0 0 0 0 0 0 0 0 0 0 0 0 0 0 0 0 0 0 0 0 0 0 0 0 0 0 0 0 0 0 0 0 0 0 0 0 0 0
0 0 0 0 0 0 0 0 0 0 0 0 0 0 0 0 0 0 0 0 0 0 0 0 0 0 0 0 0 0 0 0 0 0 0 0 0 0 0 0 0 0 0 0
Wind_Speed
28 38 49 53 52 53 39 52 49 39 29 35 46 49 48 42 41 45 41 37 35 33 25 23 22 20 20 21 18 15 14 12 9 8 7 6 7 7 8 10 11 11 11 12
34 45 48 44 45 50 40 41 44 40 32 34 42 50 51 53 44 43 41 40 34 32 25 23 22 21 20 19 20 18 16 13 12 10 9 9 7 8 9 10 11 12 12 12
41 44 36 43 50 52 52 52 44 39 32 37 40 49 50 50 44 45 44 43 32 30 27 23 22 20 19 18 18 18 17 14 12 10 9 8 7 8 11 11 11 12 12 12
39 43 44 49 51 41 41 38 32 33 36 44 33 50 46 47 51 50 48 39 36 35 28 25 23 22 20 19 16 15 15 14 12 10 10 10 10 9 12 10 10 11 12 12
27 36 44 49 51 41 35 29 27 28 33 35 37 41 43 44 48 47 52 41 36 31 27 24 21 19 19 17 16 15 15 14 13 12 11 10 10 10 8 8 9 11 12 14
31 32 29 35 38 34 20 24 27 29 29 41 39 39 46 48 41 49 45 39 32 27 26 25 21 19 18 17 15 15 14 14 13 13 12 11 10 8 7 8 9 10 12 14
22 26 24 26 22 27 30 28 31 32 34 41 33 36 40 44 40 40 39 40 35 28 24 24 21 20 18 17 16 15 14 14 13 13 13 12 10 10 8 8 10 10 11 12
19 21 23 19 25 33 37 36 31 24 28 33 29 38 36 31 40 36 35 35 32 29 24 22 21 21 18 17 16 15 14 14 13 13 13 11 9 10 9 8 7 9 10 13
16 16 20 17 20 28 36 36 29 22 27 28 28 27 29 28 34 35 28 26 28 26 27 23 18 21 18 16 17 15 15 14 13 12 11 9 9 7 6 6 7 8 11 13
16 17 14 16 16 15 29 28 24 23 23 25 25 26 28 29 30 36 32 28 25 26 24 19 16 20 19 17 13 13 14 13 14 12 9 9 5 7 6 6 8 10 12 14
17 15 15 15 14 25 28 26 16 16 18 20 23 26 19 25 28 35 28 26 24 24 22 21 17 17 17 13 12 8 11 8 12 10 9 6 5 4 6 7 10 14 13 12
16 16 16 10 10 15 20 24 17 17 17 14 17 20 21 21 19 24 24 23 20 19 19 20 17 16 15 15 10 10 11 10 9 7 4 6 1 2 6 12 13 10 7 10
17 16 15 16 15 15 18 20 18 14 13 11 11 14 14 14 11 14 20 19 19 20 20 18 16 16 15 12 11 8 9 6 5 4 3 3 2 6 6 10 9 7 9 10
18 19 14 16 15 15 19 17 15 13 9 7 2 5 8 12 13 17 10 10 14 16 18 17 14 13 13 12 13 10 7 4 4 2 1 2 4 8 8 7 5 9 6 7
14 17 16 17 16 15 16 16 15 14 10 8 8 3 9 9 8 9 6 8 10 12 14 15 15 13 11 8 7 4 4 2 1 1 2 4 9 8 6 5 6 7 7 8
17 21 17 17 15 16 16 15 15 15 12 9 7 4 10 8 6 7 10 8 11 11 14 11 10 8 5 1 2 2 2 2 2 4 7 8 6 5 5 8 8 9 11 12
20 20 19 18 16 15 15 13 15 13 11 10 7 8 8 7 7 8 8 9 9 10 8 6 3 3 4 3 3 3 2 2 5 9 8 6 6 6 8 10 11 12 13 14
24 21 20 21 17 19 15 15 15 15 12 10 10 9 10 7 5 6 9 8 9 9 7 4 1 3 2 2 2 2 3 6 8 10 9 7 6 8 12 14 15 16 17 18
23 20 19 20 21 19 13 13 12 13 14 13 11 10 7 7 7 6 8 10 10 9 6 1 2 1 3 3 3 4 7 9 10 9 9 9 11 14 16 17 18 19 21 22
20 21 19 16 20 18 16 16 17 16 15 14 12 13 7 9 9 9 10 8 7 8 6 4 4 9 4 4 6 7 9 12 12 13 13 14 15 17 19 20 21 22 23 24
21 21 22 19 17 16 16 18 17 15 13 14 17 15 11 10 9 8 7 7 8 8 8 9 9 9 9 10 12 12 14 16 19 20 19 19 19 20 20 22 23 23 24 26
23 21 21 20 17 16 15 15 11 15 16 14 12 10 6 6 6 7 9 9 10 10 11 11 9 11 13 14 14 15 17 20 20 22 22 22 21 21 22 23 24 25 27 29
23 20 19 19 17 16 15 15 17 16 17 13 12 8 6 6 7 9 10 11 12 12 13 13 13 13 16 17 18 20 22 23 24 24 23 23 23 23 24 25 26 27 28 29
20 19 19 18 14 13 12 12 12 11 10 8 6 9 10 12 12 11 12 12 13 14 15 15 15 16 18 21 22 23 25 26 25 25 25 26 26 27 25 25 27 28 30 31
19 20 18 17 14 13 9 10 10 8 10 11 12 12 13 13 13 13 14 14 15 16 17 18 19 21 23 25 26 27 26 25 26 27 28 29 29 29 30 30 30 30 30 31
17 19 18 17 15 12 10 9 8 8 9 10 12 13 14 14 14 14 15 17 18 19 21 22 23 24 26 27 27 27 28 28 29 31 32 32 33 34 33 35 37 32 33 33
Wind_Direction
275 259 247 241 239 240 246 237 241 244 252 245 245 249 247 245 241 235 235 234 235 236 234 232 230 229 229 231 225 219 221 227 218 218 225 247 255 279 297 302 308 321 334 342
269 254 249 244 240 241 236 233 236 246 251 250 250 250 248 239 242 236 232 232 232 233 231 229 229 231 230 228 228 228 222 224 222 230 244 251 255 282 297 305 313 323 333 343
261 249 248 238 233 244 231 234 238 242 250 251 254 255 245 238 240 238 233 230 231 229 227 225 226 227 227 226 222 224 221 218 222 227 233 244 265 281 293 303 314 322 334 343
242 238 227 228 229 235 222 231 236 241 244 244 246 248 243 234 235 236 231 233 232 230 228 227 227 229 225 227 222 219 216 216 218 218 221 215 249 265 287 300 316 323 333 341
235 221 216 216 216 232 229 226 236 243 248 251 249 252 247 230 230 234 223 228 229 225 224 221 220 224 228 224 218 218 217 220 221 223 222 227 256 273 284 301 315 322 329 335
222 228 235 228 225 224 219 225 236 244 251 248 248 249 243 229 208 230 226 225 227 225 224 225 226 224 226 229 223 220 219 227 228 232 231 233 239 255 270 292 303 313 323 331
217 222 235 238 220 217 216 220 228 237 242 248 254 242 243 236 221 226 227 225 225 223 220 222 220 224 225 225 228 222 221 230 229 232 241 245 250 265 267 282 300 308 318 328
215 230 238 248 223 216 213 216 222 233 242 253 250 238 238 245 223 220 227 224 223 225 225 225 225 227 221 226 230 230 228 230 238 237 243 249 254 271 274 287 298 319 321 329
215 221 218 236 240 214 208 211 222 249 258 250 241 247 245 242 217 214 217 221 221 223 227 227 223 228 222 228 229 235 237 239 237 241 250 249 267 258 267 294 315 323 323 332
237 212 233 234 219 222 211 204 221 249 245 243 238 233 234 228 215 212 218 223 223 220 224 224 221 232 239 236 236 243 241 244 248 249 253 252 245 282 288 294 308 317 329 328
278 223 218 210 215 199 198 201 236 251 258 247 234 232 244 233 222 212 219 222 222 221 223 223 228 237 242 243 241 237 247 245 251 256 245 242 265 299 295 303 321 318 325 328
256 222 229 231 253 225 213 216 239 253 245 267 242 235 243 232 222 212 210 217 220 222 225 228 232 237 246 244 245 269 267 259 250 246 247 261 226 290 303 308 309 335 355 344
274 236 230 218 210 220 218 220 235 234 264 269 249 238 248 222 213 211 219 226 230 233 234 234 235 243 247 244 268 273 270 258 237 239 196 255 288 320 326 317 328 344 338 341
278 235 238 222 222 229 209 224 225 234 250 241 273 224 229 215 214 216 219 226 229 229 231 236 238 247 263 267 266 275 258 247 243 147 218 265 306 331 333 337 360 338 5 357
283 245 263 248 243 236 227 223 224 233 239 227 216 261 231 232 229 230 224 218 222 222 230 239 243 249 258 272 268 259 248 233 191 307 322 326 319 329 357 20 5 357 348 342
279 229 247 246 261 253 230 239 228 229 236 244 241 266 233 235 237 232 228 231 234 237 239 248 255 258 259 217 132 222 222 239 294 309 309 324 349 360 355 345 340 336 334 333
256 256 245 238 255 245 227 248 231 229 239 235 242 242 236 237 239 238 238 244 248 253 259 262 253 122 114 114 107 111 95 319 308 310 325 337 332 329 329 329 328 326 325 326
252 255 246 239 244 222 256 276 257 250 259 252 241 244 230 240 262 258 248 253 255 260 258 246 131 103 92 78 53 38 353 327 321 318 318 320 320 320 322 321 318 318 319 318
241 245 245 238 234 240 261 272 263 259 263 259 264 276 293 258 259 268 269 258 256 254 265 13 65 26 61 68 3 337 333 325 323 318 314 314 314 315 315 312 313 314 316 316
239 239 236 244 231 233 248 273 276 272 261 278 291 261 331 316 263 274 275 277 285 278 289 307 305 286 39 10 335 329 323 317 318 317 315 314 313 311 311 310 312 314 314 314
233 234 233 236 244 251 278 266 247 251 273 273 236 245 258 293 285 275 290 293 292 309 318 313 304 329 335 334 323 320 317 312 313 313 313 313 313 312 312 313 314 314 313 314
229 229 230 231 237 245 278 251 274 259 258 256 253 262 291 346 311 297 305 307 318 336 357 357 352 340 333 331 330 326 323 322 322 319 318 317 317 316 316 314 314 314 314 313
227 231 230 231 242 255 261 256 267 254 248 256 249 261 302 332 333 342 345 348 348 352 357 352 350 345 337 338 340 332 329 328 325 324 323 323 322 320 319 316 315 315 315 313
229 230 230 229 252 258 278 279 303 312 293 296 339 15 22 34 25 20 13 2 359 357 355 346 349 347 341 339 337 333 326 328 329 327 325 325 323 322 321 320 318 317 315 314
225 227 227 230 245 254 286 303 314 334 8 31 35 32 35 34 24 18 9 357 352 349 345 340 337 333 332 330 329 330 332 332 330 329 327 326 325 324 322 321 319 316 315 313
223 221 224 228 245 253 264 280 315 350 1 11 27 27 17 15 12 2 355 346 342 340 337 336 334 332 331 333 335 336 336 334 329 326 325 325 323 323 323 321 320 320 316 314